Flag for USA

Past Weather in Bloomington, Indiana, USA — Yesterday and Last 2 Weeks

Now
85 °F

Sunny.


Feels Like: 89 °F
Forecast: 92 / 70 °F
Wind: 7 mph from South

Location: Monroe County Airport

Current Time: Jul 8, 2020 at 7:17:00 pm

Latest Report: Jul 8, 2020 at 5:53 pm


Visibility: 10 mi

Pressure: 29.88 "Hg

Humidity: 59%

Dew Point: 69 °F

Location of BloomingtonLocation

Past Weather in Bloomington — Graph

°F

Bloomington Temperature Yesterday

Maximum temperature yesterday: 91 °F (at 12:35 pm)
Minimum temperature yesterday: 70 °F (at 6:53 am)
Average temperature yesterday: 80 °F

High & Low Weather Summary for the Past Weeks

 TemperatureHumidityPressure
High95 °F (Jul 5, 3:53 pm)94% (Jun 29, 4:32 am)30.06 "Hg (Jun 29, 4:32 am)
Low58 °F (Jun 25, 6:53 am)29% (Jul 5, 3:53 pm)29.79 "Hg (Jun 28, 4:51 am)
Average78 °F70%29.93 "Hg
* Reported Jun 23 5:53 pm — Jul 8 5:53 pm, Bloomington. Weather by CustomWeather, © 2020

Note: Actual official high and low records may vary slightly from our data, if they occured in-between our weather recording intervals... More about our weather records

Bloomington Weather History for the Previous 24 Hours

Scroll right to see more
 ConditionsComfort  
Time TempWeatherWind HumidityBarometerVisibility
5:53 pm
Wed, Jul 8
85 °FSunny.7 mph59%29.88 "Hg10 mi
4:53 pm81 °FSunny.8 mph67%29.91 "Hg10 mi
3:53 pm80 °FSunny.10 mph69%29.92 "Hg10 mi
2:53 pm77 °FSunny.5 mph71%29.95 "Hg10 mi
2:03 pm79 °FPassing clouds.8 mph74%29.98 "Hg10 mi
1:53 pm78 °FThundershowers. Scattered clouds.8 mph74%29.96 "Hg10 mi
1:02 pm83 °FThunderstorms. Scattered clouds.8 mph59%29.98 "Hg10 mi
12:25 pm88 °FThunderstorms. Scattered clouds.7 mph57%29.99 "Hg10 mi
12:11 pm88 °FScattered clouds.No wind54%29.98 "Hg10 mi
11:53 am88 °FScattered clouds.N/A57%29.96 "Hg10 mi
10:53 am88 °FSunny.3 mph61%29.95 "Hg10 mi
9:53 am86 °FSunny.No wind63%29.96 "Hg10 mi
8:53 am81 °FSunny.No wind77%29.95 "Hg10 mi
7:53 am75 °FFog.No wind88%29.94 "Hg5 mi
6:53 am72 °FFog.No wind91%29.93 "Hg3 mi
5:53 am72 °FClear.No wind91%29.93 "Hg7 mi
4:53 am71 °FFog.No wind90%29.92 "Hg4 mi
3:53 am72 °FClear.No wind87%29.93 "Hg8 mi
2:53 am72 °FFog.No wind91%29.94 "Hg5 mi
1:53 am72 °FFog.No wind91%29.95 "Hg5 mi
12:53 am73 °FClear.No wind90%29.96 "Hg7 mi
11:53 pm
Tue, Jul 7
74 °FClear.No wind85%29.96 "Hg10 mi
10:53 pm74 °FClear.No wind88%29.95 "Hg10 mi
9:53 pm75 °FClear.3 mph88%29.93 "Hg10 mi
8:53 pm81 °FSunny.No wind74%29.92 "Hg10 mi
7:53 pm87 °FSunny.No wind53%29.91 "Hg10 mi
Weather by CustomWeather, © 2020

See weather overview